www.pogodaiklimat.ru

Погода и климат >> Архив погоды >> Россия >> Краснодарский край >> Кущевская


ПОГОДА в Кущевской

  • Прогноз погоды в Кущевской
  • Монитор погоды в Кущевской

АРХИВ ПОГОДЫ в Кущевской

Время (UTC), дата Ветер
(напр.,м/с)
 
Видим.   Явления Облачность Т
(С)
Тd
(С)
f
(%)
Тe
(С)
Тes
(С)
Комфортность P
(гПа)
Po
(гПа)
Тmin
(С)
Tmax
(С)
R
(мм)
R24
(мм)
S
(см)
15 11.02 СВ 1 10 км 10/10 600 м
[Sc diur, vesp]
+6.1 +2.3 77 +5 +5 1020.8 1018.1 +6.8 0.0
18 11.02 СВ 1 10 км 10/10 600 м
[Sc]
+5.1 +1.9 80 +4 +4 1020.7 1017.9
21 11.02 ЮВ 2 10 км 10/10 600 м
[Sc]
+5.8 +1.9 76 +4 +4 1020.0 1017.3
00 12.02 ЮВ 2 10 км ясно +3.2 +0.9 85 0 0 1019.1 1016.3
03 12.02 В 2 4000 м дымка ясно +1.1 -0.3 90 -2 -2 1019.3 1016.5 +1.0
06 12.02 В 3 4000 м дымка 10/10 600 м
[Sc]
+0.9 -0.2 92 -4 -4 1019.1 1016.3 +0.5
09 12.02 В 3 10 км 10/4 1000 м
[Sc diur, vesp Ac lent Ci sp]
+6.4 +2.3 75 +3 +5 1018.2 1015.5
12 12.02 В 4 10 км 10/0
[Ci fib]
+9.5 +2.4 61 +7 +8 1016.8 1014.2
15 12.02 В 2 10 км 10/10 1000 м
[Sc]
+8.2 +1.7 64 +7 +7 1017.0 1014.3 +9.9
18 12.02 В 3 10 км 9/9 1000 м
[Sc]
+5.5 -0.2 67 +2 +2 1017.4 1014.7
21 12.02 ЮВ 3 10 км ясно +1.7 -1.7 78 -2 -2 1017.9 1015.1
00 13.02 В 3 10 км ясно -0.1 -2.5 84 -5 -5 1017.9 1015.1
03 13.02 В 2 10 км 10/10 1000 м
[Sc]
-0.1 -2.6 83 -4 -4 1019.3 1016.5 -0.4
06 13.02 ЮВ 2 10 км 10/6 1000 м
[Sc Ci fib]
+0.1 -2.4 83 -3 -3 1020.1 1017.3 -0.6
09 13.02 З 1 10 км 10/0
[Ci fib]
+8.7 +2.2 64 +8 +12 1021.3 1018.6
12 13.02 З 3 10 км 6/3 1000 м
[Sc Ci fib]
+12.2 +2.7 52 +11 +12 1021.0 1018.3
15 13.02 З 2 10 км 10/0
[Ci fib]
+5.9 +1.0 71 +4 +4 1022.4 1019.7 +12.3
18 13.02 СЗ 2 10 км 10/0
[Cs]
+3.6 -0.8 73 +1 +1 1024.3 1021.5
21 13.02 штиль 0 10 км 10/0
[Cs]
+1.7 -1.9 77 +1 +1 1024.9 1022.1
00 14.02 СЗ 1 10 км 10/0 600 м
[Sc]
+1.1 -1.8 81 -1 -1 1025.4 1022.6
03 14.02 С 2 10 км 8/8 1000 м
[Sc]
-0.6 -4.7 74 -4 -4 1026.1 1023.3 -0.6
06 14.02 С 2 10 км 4/0
[Ci fib]
-1.2 -5.7 71 -5 -3 1027.4 1024.6 -2.6
09 14.02 СВ 2 10 км 8/0
[Ci fib]
+3.5 -6.3 49 +1 +6 1027.0 1024.3
12 14.02 СВ 2 10 км 10/0
[Ci fib]
+5.3 -7.8 38 +4 +6 1025.6 1022.8
15 14.02 СВ 2 10 км 10/0
[Ci fib]
+2.0 -7.5 49 -1 -1 1025.9 1023.1 +5.4
18 14.02 СВ 2 10 км ясно -1.0 -7.8 60 -4 -4 1026.9 1024.1
21 14.02 СВ 2 10 км 10/0
[Ac und]
-1.7 -7.5 65 -5 -5 1026.8 1024.0
00 15.02 СВ 3 10 км 10/0
[Ac und]
-2.3 -7.6 67 -7 -7 1027.0 1024.1
03 15.02 СВ 2 10 км ясно -4.1 -7.6 77 -8 -8 1027.7 1024.8 -4.1
06 15.02 СВ 2 10 км 10/0
[Ci fib]
-3.1 -7.0 74 -7 -6 1028.3 1025.5 -4.5
09 15.02 В 3 10 км 10/0
[Ci fib]
+2.4 -7.9 46 -1 +3 1027.3 1024.5
12 15.02 СВ 3 10 км 10/0
[Ci fib]
+4.9 -9.1 36 +2 +4 1025.9 1023.1
15 15.02 СВ 1 10 км ясно +1.6 -8.3 48 +1 +1 1025.6 1022.8 +5.1
18 15.02 СВ 1 10 км ясно -2.9 -8.1 67 -5 -5 1025.1 1022.3
21 15.02 З 1 10 км ясно -6.1 -8.6 82 -8 -8 1024.3 1021.5
00 16.02 З 1 10 км 10/10 1000 м
[Sc]
-7.0 -9.3 84 -9 -9 1022.9 1020.0
03 16.02 З 1 10 км ясно -5.3 -7.7 83 -8 -8 1021.4 1018.5 -7.1
06 16.02 З 2 10 км 10/0
[Cs]
-1.5 -3.7 85 -5 -4 1021.4 1018.5
09 16.02 З 3 10 км 10/0
[Cs]
+0.8 -1.7 83 -4 0 1021.5 1018.7
12 16.02 З 4 10 км 10/10 1000 м
[Sc]
+2.0 -1.5 78 -3 -3 1020.3 1017.5
15 16.02 З 3 10 км 10/10 1000 м
[Sc]
+2.1 -1.1 79 -2 -2 1020.1 1017.4 +2.3
18 16.02 З 1 10 км 10/10 1000 м
[Sc]
+2.0 -0.7 82 0 0 1020.6 1017.8
21 16.02 З 2 4000 м дымка 10/10 600 м
[Sc]
+1.2 -0.7 87 -2 -2 1021.0 1018.2
00 17.02 З 2 10 км 10/10 1000 м
[Sc]
+1.1 -1.4 83 -2 -2 1020.5 1017.7
03 17.02 З 3 10 км 10/10 1000 м
[Sc]
+1.1 -2.1 79 -3 -3 1019.8 1017.0 +1.0
06 17.02 ЮЗ 3 4000 м дымка 10/10 600 м
[Sc]
+1.1 -0.8 87 -3 -3 1019.6 1016.9
09 17.02 З 5
{10}
4000 м слаб. морось 10/10 600 м
[St]
+2.5 +0.7 88 -3 -3 1018.1 1015.4
12 17.02 ЮЗ 5-10
{11}
10 км {морось} 10/10 600 м
[Sc]
+3.2 +0.7 84 -2 -2 1015.7 1012.9
15 17.02 ЮЗ 4-10
{14}
10 км 10/8 600 м
[St Ac und]
+4.8 +2.5 85 +1 +1 1012.8 1010.1 +4.8 0.0
18 17.02 ЮЗ 5-11
{14}
10 км ясно +6.3 +3.1 80 +2 +2 1011.7 1009.0
21 17.02 ЮЗ 4
{14}
10 км ясно +5.7 +2.9 82 +2 +2 1010.9 1008.2
00 18.02 З 4
{10}
10 км 10/10 1000 м
[Sc]
+4.7 +1.5 80 +1 +1 1011.0 1008.3
03 18.02 З 4 10 км 10/10 1000 м
[Sc]
+3.3 -1.0 73 -1 -1 1011.4 1008.7 +3.3
06 18.02 З 3 10 км 10/0
[Cs]
+2.4 -0.9 79 -2 -0 1013.6 1010.8 +2.0
09 18.02 СЗ 5
{10}
10 км 4/4 1000 м
[Cb calv]
+5.7 -4.4 48 +2 +4 1014.5 1011.8
12 18.02 СЗ 5-10
{11}
10 км 4/3 1000 м
[Cb calv Ci fib]
+6.2 -7.8 36 +3 +4 1015.0 1012.2

 

Местоположение метеостанции Кущевская (Краснодарский край, Россия): широта 46.53 долгота 39.62 высота над уровнем моря 22 м.

В архиве по умолчанию представлена погода в Кущевской за последнюю неделю. Архивные данные за месяц целиком и за предыдущие месяцы, начиная с января 2011 года, Вы можете получить, выбрав интересующий диапазон дат из раскрывающегося списка и нажав кнопку "Ввод!".


*Определитесь, кто Вы:
робот инопланетянин человек

Внимание! Время в таблицах - всемирное. Для получения местного времени необходимо прибавить поправку, которая равна 3 ч.

Смотрите также архив погоды в соседних городах и на ближайших метеорологических станциях:

Погода в Староминская (Краснодарский край, Россия) (46 км)
Погода в Сосыке (Краснодарский край, Россия) (47 км)
Погода в Зерноград (Ростовская область, Россия) (64 км)
Погода в Каневской (Краснодарский край, Россия) (72 км)
Погода в Маргаритово (Ростовская область, Россия) (72 км)
Погода в Тихорецке (Краснодарский край, Россия) (84 км)
Погода в Ростове-на-Дону (Ростовская область, Россия) (84 км)
Погода в Таганроге (Ростовская область, Россия) (92 км)
Погода в Ейске (Краснодарский край, Россия) (107 км)
Погода в Белой Глине (Краснодарский край, Россия) (109 км)

Пояснения к столбцам:

Ветер - указаны скорость ветра в м/с - средняя за 10 мин, порывы в срок и между сроками (в фигурных скобках) и направление, откуда дует ветер: С - северный, СВ - северо-восточный, В - восточный, ЮВ - юго-восточный, Ю - южный, ЮЗ - юго-западный, З - западный, СЗ - северо-западный.
Видимость - горизонтальная дальность видимости в метрах или километрах. При видимости от 1 до 10 км при отсутствии осадков обычно наблюдается дымка, при ухудшении видимости до 1 км и менее - туман. В сухую погоду видимость может ухудшаться дымом, пылью или мглою.
Явления - указаны атмосферные явления, наблюдавшиеся в срок или в последний час перед сроком; фигурными скобками обозначены явления, наблюдавшиеся между сроками (за 1-3 часа до срока); квадратными скобками обозначены град или гололедные отложения с указанием их диаметра в мм.
Облачность - указаны через наклонную черту общая и нижняя облачность в баллах и высота нижней границы облаков в метрах; квадратными скобками обозначены формы облаков: Ci - перистые, Cs - перисто-слоистые, Cc - перисто-кучевые, Ac - высококучевые, As - высокослоистые, Sc - слоисто-кучевые, Ns - слоисто-дождевые, Cu - кучевые, Cb - кучево-дождевые. Подробнее классификацию облаков см. в Атласе облаков (PDF).
T - Температура воздуха - температура, измеренная на высоте 2 м над землей.
Td - Температура точки росы - температура, при понижении до которой содержащийся в воздухе водяной пар достигнет насыщения.
f - Относительная влажность воздуха - влажноcть воздуха, измеренная на высоте 2 м над землей.
Te - Эффективная температура - температура, которую ощущает одетый по сезону человек в тени. Характеристика душности погоды. При расчете учитывается влияние влажности воздуха и скорости ветра на теплоощущения человека.
Tes - Эффективная температура на солнце - температура, которую ощущает человек, с поправкой на солнечный нагрев. Характеристика знойности погоды. Зависит от высоты солнца над горизонтом, облачности и скорости ветра. Ночью, в пасмурную погоду, а также при ветре 12 м/с и более поправка равна нулю.
P - Атмосферное давление - приведенное к уровню моря атмосферное давление.
Po - Атмосферное давление - измеренное на уровне метеостанции атмосферное давление.
Tmin - Минимальная температура - минимум температуры воздуха на высоте 2 м над землей.
Tmax - Максимальная температура - максимум температуры воздуха на высоте 2 м над землей.
R - Количество осадков - Количество выпавших осадков за период времени, мм. При наведении курсора мыши на число - период времени, за который выпало указанное количество осадков.
R24 - Количество осадков - Количество выпавших осадков за 24 часа, мм.
S - Снежный покров - Высота снежного покрова, см. При наведении курсора мыши на число - состояние снежного покрова и степень покрытия местности в баллах.